NOAA 16 DEB, 42333

Orbit data source: Space-Track

NOAA 16 DEB, 42333 is space debris in SSO originally from a launch on Thu, 21 Sep 2000 UTC launched from the Air Force Western Test Range (AFWTR). Debris objects in space refer to the collection of defunct objects orbiting the Earth. Examples of debris include non-operational satellites, rocket bodies, and fragments generated from explosions, collisions, or faulty payload assembly.

Loading next visibility...
Identifier
42333, 2000-055PZ
Orbit
SSO
Country
Flag of USUS
Related business
Manufacturer
Unknown
Mission
Spacecraft
Bus & Motor
Unknown
Mass
Unknown
Launch date (UTC)
2000-09-21 (25 years ago)
Launch vehicle
Unknown
Launch site
Air Force Western Test Range (AFWTR)
Object type
Payload
Rocket body
Debris
Shape & HBR
Unknown shape, 0.1 m
Radar Cross Section
Small (<0.1 m²)

Expand to show TLE details & history
Last TLE update: 2 days ago

TLE from 2 days ago
0 NOAA 16 DEB
1 42333U 00055PZ  25287.26713918  .00006606  00000-0  27758-2 0  9995
2 42333  98.9585  44.7666 0017363 213.1374 146.8718 14.26096254494916
Epoch: 2025-10-14T06:24Z
TLE epoch observation values (Epoch: 2025-10-14T06:24:40.825Z)
Latitude
-0.00007°
Longitude
-74.46151°
Altitude
818.177 km
Speed
7.439 km/s
True Right ascension
02h 59m 03s
True Declination
0° 00' 00"
Sunlit
Object was in full shadow at epoch
Visualization orbit readout
Latitude
Unknown
Longitude
Unknown
Altitude
Unknown
Speed
Unknown
Apparent Right ascension
Unknown
Apparent Declination
Unknown
Sunlit
N/A
Visualization observer readout
Local Sidereal Time
16:03:41
Azimuth
Unknown
Elevation
Unknown
Doppler factor
Unknown
Orbital elements
Apogee altitude
814.439 km
Perigee altitude
789.505 km
Semi-major axis
7,180.109 km
Eccentricity
0.00174
Inclination
98.9585°
RAAN
44.7666°
Arg. of periapsis
213.1374°
True anomaly
146.98034°
Mean anomaly
146.8718°
Eccentric anomaly
146.92609°
Mean motion
3.56736 °/min
Orbital period
100.92 mins
BSTAR
0.0027758
Loading maneuver chart data...
Computing Atmospheric mass density...

Documentation

Showing up to 5 results
|